{"data":{"norad_id":68114,"intl_designator":"2026-044P","name":"STARLINK-36229","alt_names":[],"object_type":"PAYLOAD","status":"ACTIVE","operator":null,"country":"US","launch_date":"2026-03-08","launch_site_code":"AFWTR","launch_vehicle":null,"mission":null,"orbit_class":"UNKNOWN","rcs_meters":null,"size_class":null,"mass_kg":null,"dimensions":null,"purposes":["comms"],"wikipedia_slug":null,"has_3d_model":false,"image_url":null,"decayed_at":null,"tle_current":{"epoch":"2026-09-20T03:33:34.745184Z","epoch_age_seconds":86580,"freshness":"FRESH","line1":"1 68114U 26044P   26263.14831881  .00003152  00000+0  99937-4 0  9990","line2":"2 68114  97.2853 222.1016 0001994  90.3957 269.7514 15.33439296 31380","mean_motion":15.33439296,"eccentricity":0.0001994,"inclination_deg":97.2853,"raan_deg":222.1016,"arg_perigee_deg":90.3957,"mean_anomaly_deg":269.7514,"bstar":9.9937e-5,"rev_number":3138,"period_min":93.906553963777,"perigee_km":464.1955124108,"apogee_km":466.92477883247,"semimajor_km":6843.6971456216,"source":"CELESTRAK","updated_at":"2026-09-20T09:00:43.787893Z"}}}